KALMAR current weather conditions

sailwx.info

Wind from 240 at 8 knots

Air temperature 8.0° C
Visibility: greater than 5.4 NM
Dewpoint 3.0° C

Last reported at 2015-Mar-27 14:20 UTC.
Time now 2015-Mar-27 15:45 UTC

Location: N 56°44' E 016°18'.
View on Google Maps.

See reports from other nearby stations

  
Tides and Currents Weather Stations Pressure Air Temp Water Temp Dewpoint Dewpoint Depression Visibility Wind Speed Wind Dir Waves Ship Positions
date/time (UTC)wind fromknots sea level pressurealtimeterstation pressurevisibilityair tempwater tempwave heightnotes
2015-Mar-27 14:20 240 8 5.4 8.0
2015-Mar-27 13:50 250 9 5.4 8.0
2015-Mar-27 13:20 260 6 5.4 9.0
2015-Mar-27 12:50 240 6 5.4 9.0
2015-Mar-27 12:20 250 6 5.4 9.0
2015-Mar-27 11:50 250 4 5.4 9.0
2015-Mar-27 11:20 260 5 5.4 8.0
2015-Mar-27 10:50 240 5 5.4 8.0
2015-Mar-27 10:20 250 5 5.4 8.0
2015-Mar-27 09:50 260 5 5.4 8.0
2015-Mar-27 09:20 260 5 5.4 8.0
2015-Mar-27 08:50 260 3 5.4 8.0
2015-Mar-27 08:20 280 5 5.4 7.0
2015-Mar-27 07:50 270 4 4.9 7.0
2015-Mar-27 07:20 270 5 3.8 6.0 Mist.
2015-Mar-27 06:50 240 4 2.5 6.0 Mist.
2015-Mar-27 06:20 240 2 1.9 6.0 Mist.
2015-Mar-27 05:50 270 2 1.5 5.0 Mist.
2015-Mar-27 05:20 270 4 1.5 5.0 Mist.
2015-Mar-27 04:50 240 4 1.2 5.0 Mist.
2015-Mar-27 04:20 290 4 1.1 5.0 Mist.
2015-Mar-27 03:50 290 3 1.0 5.0 Mist.
2015-Mar-27 03:20 230 5 0.9 5.0 Mist.
2015-Mar-27 02:50 0.9 5.0 Mist.
2015-Mar-27 02:20 330 2 0.8 5.0 Mist.
2015-Mar-27 01:50 280 2 0.6 5.0
2015-Mar-27 01:20 280 2 0.4 5.0
2015-Mar-27 00:50 290 3 0.3 5.0 Fog.
2015-Mar-27 00:20 300 1 0.2 5.0 Fog.
2015-Mar-26 23:50 320 2 0.2 5.0 Fog.
2015-Mar-26 23:20 320 3 0.2 5.0 Fog.
2015-Mar-26 22:50 320 2 0.3 5.0 Fog.
2015-Mar-26 22:20 040 3 0.3 5.0 Fog.
2015-Mar-26 21:50 030 1 0.3 5.0 Light drizzle.
2015-Mar-26 21:20 040 3 0.3 5.0 Light rain.
2015-Mar-26 20:50 330 3 0.4 5.0 Light rain.
2015-Mar-26 20:20 310 1 0.5 5.0 Light rain.
2015-Mar-26 19:50 0.5 5.0 Light rain.
2015-Mar-26 19:20 140 3 0.6 5.0 Drizzle.
2015-Mar-26 18:50 130 5 0.8 5.0 Drizzle.
2015-Mar-26 18:20 130 6 1.0 5.0 Drizzle.
2015-Mar-26 17:50 110 7 1.6 6.0 Light drizzle.
2015-Mar-26 17:20 080 4 2.1 6.0 Light drizzle.
2015-Mar-26 16:50 080 4 2.6 6.0 Mist.
2015-Mar-26 16:20 050 3 2.7 6.0 Light drizzle.
2015-Mar-26 15:50 2.7 6.0 Mist.
2015-Mar-26 15:20 130 6 3.2 6.0 Mist.
2015-Mar-26 14:50 120 8 3.2 7.0 Mist.
2015-Mar-26 14:20 110 6 3.8 7.0 Mist.
2015-Mar-26 13:50 110 6 3.8 7.0 Mist.
2015-Mar-26 13:20 100 7 3.8 7.0 Mist.
2015-Mar-26 12:50 110 8 3.8 6.0 Mist.
2015-Mar-26 12:20 110 6 3.8 6.0 Mist.
2015-Mar-26 11:50 090 9 3.8 6.0 Mist.
2015-Mar-26 11:20 120 11 4.9 7.0 Rain.
2015-Mar-26 10:50 080 7 4.9 7.0 Mist.
2015-Mar-26 10:20 080 6 5.4 7.0
2015-Mar-26 09:50 080 9 4.9 7.0
2015-Mar-26 09:20 100 6 4.3 6.0 Mist.
2015-Mar-26 08:50 080 8 6.0
2015-Mar-26 08:20 080 11 5.4 6.0
2015-Mar-26 07:50 070 11 5.0
2015-Mar-26 07:20 080 10 5.0
2015-Mar-26 06:50 070 11 5.0
2015-Mar-26 06:20 070 11 4.0
2015-Mar-26 05:50 070 10 4.0
2015-Mar-26 05:20 070 10 4.0
2015-Mar-26 04:50 070 9 3.0
2015-Mar-26 04:20 070 10 5.4 3.0
2015-Mar-26 03:50 070 11 5.4 3.0
2015-Mar-26 03:20 060 11 5.4 3.0
2015-Mar-26 02:50 060 11 5.4 3.0
2015-Mar-26 02:20 040 8 5.4 2.0
2015-Mar-26 01:50 030 7 5.4 2.0
2015-Mar-26 01:20 040 8 5.4 2.0
2015-Mar-26 00:50 040 7 5.4 2.0
2015-Mar-26 00:20 030 9 5.4 2.0
2015-Mar-25 23:50 030 9 5.4 2.0
2015-Mar-25 23:20 030 10 5.4 1.0
2015-Mar-25 22:50 030 9 5.4 1.0
2015-Mar-25 22:20 040 9 5.4 1.0
2015-Mar-25 21:50 040 8 5.4 1.0
2015-Mar-25 21:20 040 8 5.4 1.0
2015-Mar-25 20:50 050 12 5.4 1.0
2015-Mar-25 20:20 050 12 5.4 1.0
2015-Mar-25 19:50 050 13 5.4 1.0
2015-Mar-25 19:20 050 13 1.0
2015-Mar-25 18:50 050 13 2.0
2015-Mar-25 18:20 050 10 5.4 2.0
2015-Mar-25 17:50 050 11 5.4 2.0
2015-Mar-25 17:20 060 10 5.4 3.0
2015-Mar-25 16:50 060 10 5.4 3.0
2015-Mar-25 16:20 050 13 5.4 3.0
2015-Mar-25 15:50 050 12 5.4 3.0
2015-Mar-25 15:20 060 12 5.4 4.0